This is the latest recevied weather packets stored in our database for station/object M0UPS-13. If no packets are shown the sender has not sent any weather packets the latest 10 day(s).
| Time | Temp. | Humidity | Pressure | Rain* | Wind** | Luminosity | Snow |
|---|---|---|---|---|---|---|---|
| 1777385702 | 17.22° C | 43% | 1023.5 hPa | 0 mm | - | 607 W/m² | - |
| 1777385402 | 17.22° C | 43% | 1023.5 hPa | 0 mm | - | 585 W/m² | - |
| 1777385102 | 17.22° C | 43% | 1023.5 hPa | 0 mm | - | 616 W/m² | - |
| 1777384802 | 17.22° C | 46% | 1023.6 hPa | 0 mm | - | 623 W/m² | - |
| 1777384502 | 17.22° C | 44% | 1023.6 hPa | 0 mm | - | 641 W/m² | - |
| 1777384203 | 17.22° C | 46% | 1023.7 hPa | 0 mm | - | 620 W/m² | - |
| 1777383902 | 17.22° C | 45% | 1023.8 hPa | 0 mm | - | 635 W/m² | - |
| 1777383602 | 17.22° C | 46% | 1023.8 hPa | 0 mm | - | 664 W/m² | - |
| 1777383303 | 17.22° C | 45% | 1023.7 hPa | 0 mm | - | 715 W/m² | - |
| 1777383003 | 17.22° C | 43% | 1023.8 hPa | 0 mm | - | 643 W/m² | - |
| 1777382702 | 16.67° C | 45% | 1024 hPa | 0 mm | - | 668 W/m² | - |
| 1777382402 | 16.67° C | 46% | 1023.8 hPa | 0 mm | - | 655 W/m² | - |
| 1777382103 | 16.67° C | 45% | 1023.7 hPa | 0 mm | - | 358 W/m² | - |
| 1777381802 | 16.11° C | 46% | 1023.8 hPa | 0 mm | - | 706 W/m² | - |
| 1777381502 | 16.11° C | 47% | 1023.8 hPa | 0 mm | - | 240 W/m² | - |
| 1777381203 | 16.67° C | 46% | 1024 hPa | 0 mm | - | 271 W/m² | - |
| 1777380903 | 16.67° C | 45% | 1023.9 hPa | 0 mm | - | 733 W/m² | - |
| 1777380602 | 16.67° C | 48% | 1023.8 hPa | 0 mm | - | 721 W/m² | - |
| 1777380302 | 16.67° C | 43% | 1024.2 hPa | 0 mm | - | 181 W/m² | - |
| 1777380002 | 16.67° C | 44% | 1024.3 hPa | 0 mm | - | 704 W/m² | - |
| 1777379702 | 16.11° C | 45% | 1024.2 hPa | 0 mm | - | 705 W/m² | - |
| 1777379403 | 16.11° C | 44% | 1024.3 hPa | 0 mm | - | 724 W/m² | - |
| 1777379102 | 16.11° C | 45% | 1024.4 hPa | 0 mm | - | 701 W/m² | - |
| 1777378802 | 16.11° C | 45% | 1024.4 hPa | 0 mm | - | 741 W/m² | - |
| 1777378502 | 15.56° C | 47% | 1024.4 hPa | 0 mm | - | 722 W/m² | - |
* Rain latest hour (hover to see other rain measurements)
** Current wind speed in m/s (hover to see current wind gust speed)